sat.trackr.live / text

‹ back to catalog

STARLINK-36090

NORAD 66855 · 2025-281H

PAYLOAD ACTIVE UNKNOWN

§ Identity

Operator
Country
US
Launch date
2025-12-02
Launch site
AFETR
Launch vehicle
Mass (kg)
RCS (m²)

Purposes: comms

External: N2YO · Heavens-Above · Gunter

§ Orbital elements

Epoch: 2026-09-20T21:25:27.585696Z

Period
94.27 min
Inclination
43.0066°
Eccentricity
0.0002775
Mean motion
15.27596326 rev/d
Perigee alt
481.1 km
Apogee alt
484.9 km
Semi-major
6,861.1 km
B*
2.9804e-4
RAAN
320.6948°
Arg perigee
275.8646°
Mean anomaly
84.1889°
Rev number
4,604

§ Raw data

STARLINK-360901 66855U 25281H   26263.89268039  .00007952  00000+0  29804-3 0  99902 66855  43.0066 320.6948 0002775 275.8646  84.1889 15.27596326 46040

JSON: /api/v1/satellites/66855 · /tle

For live sub-satellite position, see the globe view (requires WebGL).

§ Visibility from observer

Set your observer location to see the next 7 days of passes ≥ 10°. The values pass through the URL so the page stays shareable.

No JS? Fill the form by hand. The geolocation button needs JavaScript.